{"data":{"norad_id":59902,"epoch":"2026-09-21T21:51:55.667808Z","epoch_age_seconds":52520,"freshness":"FRESH","line1":"1 59902U 24100T   26264.91106097  .00000144  00000+0  14760-4 0  9995","line2":"2 59902  43.0019  97.4771 0000950 272.1337  87.9406 15.27576921131057","mean_motion":15.27576921,"eccentricity":9.5e-5,"inclination_deg":43.0019,"raan_deg":97.4771,"arg_perigee_deg":272.1337,"mean_anomaly_deg":87.9406,"bstar":1.476e-5,"rev_number":13105,"period_min":94.266938718695,"perigee_km":482.40650213381,"apogee_km":483.71012924379,"semimajor_km":6861.1953156888,"source":"CELESTRAK","updated_at":"2026-09-22T09:00:49.109105Z"}}